Tenerife, El Salvador

12:39 PM WEST en Septiembre 21, 2018 (GMT +0100)
Tenerife

Tiempo Historia de GCXO - Abril, 2018

Change the Weather History Date:

Lunes, Abril 16, 2018

  Actual Average Record
Temperature  
Temperatura media 58 ° F -  
Temperatura máxima 66 ° F 64 ° F 88 ° F (2017)
Temperatura mínima 49 ° F 51 ° F 49 ° F (2018)
Degree Days  
Grados día de calefacción 8    
Growing Degree Days 8 (Base 50)    
Moisture  
Punto de rocío 54 ° F    
Average Humidity 87    
Maximum Humidity 100    
Minimum Humidity 69    
Precipitación  
Precipitación 0.00 pul - - ()
Presión al nivel del mar  
Presión al nivel del mar 30.15 pul    
Viento  
Velocidad del viento 6 mph ()    
Velocidad máxima del viento 10 mph    
Max Gust Speed -    
Visibilidad 7.0 Millas    
Eventos Niebla , Lluvia    
Averages and records for this station are not official NWS values.
T = Trace of Precipitation, MM = Missing Value Source: Averaged Metar Reports

Daily Weather History Graph

Daily Weather History Graph

Search for Another Location

Airport or City:

Astronomía

Apr. 16, 2018 Salida Puesta
Hora real 7:39 AM WEST 8:31 PM WEST
Crepúsculo civil 7:14 AM WEST 8:55 PM WEST
Crepúsculo náutico 6:46 AM WEST 9:24 PM WEST
Crepúsculo astronómico 6:17 AM WEST 9:53 PM WEST
Luna 8:09 AM WEST (4/16) 9:08 PM WEST (4/16)
Horas de luz 13h 40m
Horas de luz
12h 52m
Luna nueva, 0% of the Moon is Illuminated
Abr 16
Luna nueva
Abr 22
Cuarto creciente
Abr 30
Luna llena
May 8
Cuarto menguante
May 15
Nueva

Hourly Weather History & Observations

Hora (WEST) Temp. Punto de rocío Humedad Presión Visibilidad Wind Dir Velocidad del viento Velocidad de ráfagas Precip Eventos Condiciones
12:00 AM 55.4 ° F 53.6 ° F 94% 30.24 pul 6.2 mi Oeste 8.1 mph - N/A   Nubes dispersas
12:30 AM 55.4 ° F 53.6 ° F 94% 30.21 pul 6.2 mi ONO 6.9 mph - N/A   Nubes dispersas
1:00 AM 54 ° F 53 ° F 95% 30.22 pul 19 mi ONO 9.2 mph - -  
1:00 AM 55.4 ° F 53.6 ° F 94% 30.21 pul 6.2 mi NO 8.1 mph - N/A   Nubes dispersas
1:30 AM 55.4 ° F 55.4 ° F 100% 30.21 pul 6.2 mi NO 10.4 mph - N/A   Muy nublado
2:00 AM 55.4 ° F 55.4 ° F 100% 30.21 pul 6.2 mi NO 6.9 mph - N/A   Nublado
2:30 AM 53.6 ° F 53.6 ° F 100% 30.18 pul 6.2 mi NO 5.8 mph - N/A   Nubes dispersas
3:00 AM 53.6 ° F 53.6 ° F 100% 30.18 pul 6.2 mi Oeste 6.9 mph - N/A   Nubes dispersas
3:30 AM 53.6 ° F 53.6 ° F 100% 30.18 pul 6.2 mi Oeste 6.9 mph - N/A   Desconocido
4:00 AM 53.6 ° F 53.6 ° F 100% 30.15 pul 6.2 mi Oeste 5.8 mph - N/A   Desconocido
4:30 AM 53.6 ° F 51.8 ° F 94% 30.15 pul 6.2 mi OSO 4.6 mph - N/A Lluvia Lluvia débil
5:00 AM 53.6 ° F 51.8 ° F 94% 30.15 pul 6.2 mi Oeste 5.8 mph - N/A   Desconocido
5:30 AM 53.6 ° F 50.0 ° F 88% 30.15 pul 6.2 mi Variable 2.3 mph - N/A   Desconocido
6:00 AM 51.8 ° F 48.2 ° F 88% 30.12 pul 6.2 mi ESE 3.5 mph - N/A   Parcialmente nublado
6:30 AM 50.0 ° F 48.2 ° F 94% 30.15 pul - Variable 1.2 mph - N/A   Despejado
7:00 AM 52 ° F 49 ° F 88% 30.15 pul 19 mi SSE 4.6 mph - -   Nubes dispersas
7:00 AM 53.6 ° F 50.0 ° F 88% 30.15 pul 6.2 mi SSE 3.5 mph - N/A   Parcialmente nublado
7:30 AM 51.8 ° F 50.0 ° F 94% 30.15 pul 6.2 mi Sur 4.6 mph - N/A   Parcialmente nublado
8:30 AM 53.6 ° F 50.0 ° F 88% 30.15 pul 6.2 mi Variable 1.2 mph - N/A   Parcialmente nublado
9:00 AM 57.2 ° F 53.6 ° F 88% 30.15 pul 6.2 mi ONO 3.5 mph - N/A   Parcialmente nublado
9:30 AM 59.0 ° F 53.6 ° F 82% 30.15 pul 6.2 mi Variable 2.3 mph - N/A   Parcialmente nublado
10:00 AM 60.8 ° F 51.8 ° F 72% 30.15 pul 6.2 mi Variable 1.2 mph - N/A   Parcialmente nublado
11:00 AM 59.0 ° F 53.6 ° F 82% 30.18 pul 6.2 mi Este 5.8 mph - N/A   Nubes dispersas
11:30 AM 60.8 ° F 53.6 ° F 77% 30.18 pul 6.2 mi SE 4.6 mph - N/A   Nubes dispersas
12:00 PM 62.6 ° F 55.4 ° F 77% 30.18 pul 6.2 mi SE 4.6 mph - N/A   Nubes dispersas
12:30 PM 62.6 ° F 55.4 ° F 77% 30.18 pul 6.2 mi ESE 8.1 mph - N/A   Muy nublado
1:00 PM 62.6 ° F 55.4 ° F 77% 30.18 pul 6.2 mi ESE 6.9 mph - N/A   Muy nublado
1:30 PM 62.6 ° F 55.4 ° F 77% 30.18 pul 6.2 mi ESE 6.9 mph - N/A   Nubes dispersas
2:30 PM 62.6 ° F 55.4 ° F 77% 30.15 pul 6.2 mi Variable 8.1 mph - N/A   Nubes dispersas
3:00 PM 64.4 ° F 57.2 ° F 77% 30.15 pul 6.2 mi ESE 6.9 mph - N/A   Nubes dispersas
3:30 PM 64.4 ° F 57.2 ° F 77% 30.12 pul 6.2 mi Variable 5.8 mph - N/A   Parcialmente nublado
4:00 PM 65 ° F 57 ° F 69% 30.07 pul 16 mi ESE 6.9 mph - -   Nubes dispersas
4:00 PM 66.2 ° F 57.2 ° F 73% 30.12 pul 6.2 mi ESE 4.6 mph - N/A   Parcialmente nublado
4:30 PM 62.6 ° F 55.4 ° F 77% 30.12 pul 6.2 mi ESE 9.2 mph - N/A   Parcialmente nublado
5:00 PM 66.2 ° F 59.0 ° F 78% 30.12 pul 6.2 mi ESE 6.9 mph - N/A   Parcialmente nublado
5:30 PM 66.2 ° F 59.0 ° F 78% 30.12 pul 6.2 mi ESE 5.8 mph - N/A   Parcialmente nublado
6:00 PM 66.2 ° F 57.2 ° F 73% 30.12 pul 6.2 mi Variable 3.5 mph - N/A   Parcialmente nublado
6:30 PM 64.4 ° F 55.4 ° F 73% 30.12 pul 6.2 mi ONO 6.9 mph - N/A   Parcialmente nublado
7:00 PM 64.4 ° F 55.4 ° F 73% 30.12 pul 6.2 mi ONO 8.1 mph - N/A   Parcialmente nublado
7:30 PM 62.6 ° F 55.4 ° F 77% 30.12 pul - ONO 8.1 mph - N/A   Despejado
8:00 PM 60.8 ° F 55.4 ° F 82% 30.12 pul - Oeste 6.9 mph - N/A   Despejado
8:30 PM 57.2 ° F 53.6 ° F 88% 30.12 pul - Oeste 6.9 mph - N/A   Despejado
9:00 PM 55.4 ° F 53.6 ° F 94% 30.12 pul 6.2 mi Oeste 8.1 mph - N/A   Parcialmente nublado
10:00 PM 55 ° F 53 ° F 92% 30.13 pul 7 mi OSO 9.2 mph - -  
10:00 PM 55.4 ° F 53.6 ° F 94% 30.12 pul 4.3 mi Oeste 8.1 mph - N/A Niebla Bancos de niebla
10:22 PM 55.4 ° F 53.6 ° F 94% 30.15 pul - Oeste 8.1 mph - N/A   Despejado
10:30 PM 55.4 ° F 53.6 ° F 94% 30.15 pul - Oeste 8.1 mph - N/A   Despejado
11:00 PM 53.6 ° F 53.6 ° F 100% 30.15 pul 6.2 mi Oeste 10.4 mph - N/A   Parcialmente nublado
11:30 PM 53.6 ° F 53.6 ° F 100% 30.15 pul 5.0 mi Oeste 10.4 mph - N/A   Nubes dispersas